TimeCEST,TemperatureF,Dew PointF,Humidity,Sea Level PressureIn,VisibilityMPH,Wind Direction,Wind SpeedMPH,Gust SpeedMPH,PrecipitationIn,Events,Conditions,WindDirDegrees,DateUTC
12:55 AM,41.0,39.2,93,30.01,0.3,NNE,10.4,-,N/A,Fog,Fog,30,2012-10-09 22:55:00
1:55 AM,41.0,41.0,100,30.01,0.1,NE,10.4,-,N/A,Fog,Fog,50,2012-10-09 23:55:00
2:00 AM,41,41,100,,0,NE,10.4,,,Fog,Heavy Fog,50,2012-10-10 00:00:00
2:55 AM,41.0,41.0,100,30.01,0.2,NNE,9.2,-,N/A,Fog,Fog,30,2012-10-10 00:55:00
3:55 AM,42.8,39.2,87,29.98,0.6,NE,6.9,-,N/A,Fog,Fog,40,2012-10-10 01:55:00
4:55 AM,42.8,35.6,76,29.95,-9999.0,ENE,5.8,-,N/A,,Clear,60,2012-10-10 02:55:00
5:00 AM,43,36,67,,25,ENE,5.8,,,Fog,Light Fog,60,2012-10-10 03:00:00
5:55 AM,42.8,35.6,76,29.95,-9999.0,NE,4.6,-,N/A,,Clear,50,2012-10-10 03:55:00
6:55 AM,42.8,35.6,76,29.95,-9999.0,NW,3.5,-,N/A,,Clear,320,2012-10-10 04:55:00
7:55 AM,41.0,35.6,81,29.95,6.2,Variable,2.3,-,N/A,,Partly Cloudy,0,2012-10-10 05:55:00
8:00 AM,41,35,71,,31,,2.3,,,,Partly Cloudy,,2012-10-10 06:00:00
8:55 AM,42.8,35.6,76,29.95,6.2,SSW,6.9,-,N/A,,Partly Cloudy,200,2012-10-10 06:55:00
10:55 AM,44.6,37.4,76,29.98,-9999.0,East,3.5,-,N/A,,Clear,80,2012-10-10 08:55:00
11:00 AM,45,38,69,,31,East,3.5,,,,Partly Cloudy,80,2012-10-10 09:00:00
11:55 AM,46.4,39.2,76,29.98,-9999.0,West,3.5,-,N/A,,Clear,270,2012-10-10 09:55:00
12:55 PM,46.4,42.8,87,29.98,0.6,West,4.6,-,N/A,Fog,Fog,260,2012-10-10 10:55:00
1:55 PM,46.4,41.0,81,29.95,0.6,South,4.6,-,N/A,Fog,Fog,190,2012-10-10 11:55:00
2:00 PM,47,42,75,,1,South,4.6,,,Fog,Heavy Fog,190,2012-10-10 12:00:00
2:55 PM,48.2,42.8,82,29.92,0.6,South,8.1,-,N/A,Fog,Fog,190,2012-10-10 12:55:00
3:55 PM,44.6,42.8,93,29.92,0.4,West,3.5,-,N/A,Fog,Fog,260,2012-10-10 13:55:00
4:55 PM,42.8,41.0,93,29.92,0.2,ESE,3.5,-,N/A,Fog-Rain,Light Rain,120,2012-10-10 14:55:00
5:00 PM,43,42,94,,0,ESE,3.5,,,Rain,Light Rain,120,2012-10-10 15:00:00
5:55 PM,42.8,41.0,93,29.92,0.4,NW,2.3,-,N/A,Fog,Fog,320,2012-10-10 15:55:00
6:55 PM,41.0,35.6,81,29.92,6.2,NNE,5.8,-,N/A,,Partly Cloudy,20,2012-10-10 16:55:00
7:55 PM,41.0,35.6,81,29.95,6.2,NE,8.1,-,N/A,,Partly Cloudy,40,2012-10-10 17:55:00
8:00 PM,41,35,73,,25,NE,8.1,,,,Partly Cloudy,40,2012-10-10 18:00:00
8:55 PM,41.0,37.4,87,29.95,-9999.0,NNE,4.6,-,N/A,,Clear,20,2012-10-10 18:55:00
9:55 PM,39.2,35.6,87,29.95,-9999.0,NNE,8.1,-,N/A,,Clear,30,2012-10-10 19:55:00
10:55 PM,39.2,39.2,100,29.95,0.0,NE,5.8,-,N/A,Fog,Fog,50,2012-10-10 20:55:00
11:00 PM,40,40,98,,0,NE,5.8,,,Fog,Heavy Fog,50,2012-10-10 21:00:00
11:55 PM,39.2,35.6,87,29.95,-9999.0,West,4.6,-,N/A,,Clear,270,2012-10-10 21:55:00